Simultaneous Nadir Overpasses (SNOs) Predictions

Prediction of SNOs between LANDSAT-8 and METOP-B Satellite Orbit:

Table of predicted SNOs for the next 14.0 days since TLE Epoch: 6/11/2022
Index Date (LANDSAT-8) Time (LANDSAT-8) Lat,Lon (LANDSAT-8) SZA (LANDSAT-8 ) Date (METOP-B) Time (METOP-B) Lat,Lon (METOP-B) SZA (METOP-B ) Distance(km) Time Diff (sec)
1 06/12/2022 15:15:03 81.15, -8.35 60.19 06/12/2022 15:14:22 81.15, -8.23 60.19 2.40 41
2 06/12/2022 16:04:29 -81.16, 159.58 119.77 06/12/2022 16:05:02 -81.17, 159.49 119.76 1.48 33
3 06/15/2022 10:49:19 81.17, 58.43 60.09 06/15/2022 10:48:44 81.17, 58.57 60.09 2.33 35
4 06/15/2022 11:38:46 -81.16,-133.98 119.93 06/15/2022 11:39:25 -81.17,-134.06 119.91 1.38 39
5 06/18/2022 06:23:36 81.16, 124.77 59.97 06/18/2022 06:23:07 81.17, 124.94 59.98 3.03 29
6 06/18/2022 07:13:02 -81.18, -67.25 119.98 06/18/2022 07:13:47 -81.18, -67.26 119.97 0.42 45
7 06/21/2022 01:57:52 81.15,-168.97 59.89 06/21/2022 01:57:30 81.15,-169.10 59.87 2.10 22
8 06/21/2022 02:47:18 -81.17, -0.96 120.05 06/21/2022 02:48:09 -81.18, -0.89 120.02 1.44 51
9 06/23/2022 21:32:08 81.16,-102.42 59.92 06/23/2022 21:31:52 81.16,-102.41 59.92 0.43 16



Historial Predications of SNOs between LANDSAT-8 and METOP-B
